K14-Fa-1c, Netherlands

10:20 AM CET on February 22, 2017 (GMT +0100)
K14-fa-1c Sea

Weather History for EHKV - January, 2014

Change the Weather History Date:

Tuesday, January 14, 2014

  Actual Average (EHVL) Record (EHVL)
Temperature  
Mean Temperature 46 °F -  
Max Temperature 47 °F 41 °F 50 °F (2007)
Min Temperature 44 °F 37 °F 19 °F (2013)
Degree Days  
Heating Degree Days 20    
Moisture  
Dew Point 41 °F    
Average Humidity 81    
Maximum Humidity 93    
Minimum Humidity 60    
Precipitation  
Precipitation 0.00 in - - ()
Sea Level Pressure  
Sea Level Pressure 29.63 in    
Wind  
Wind Speed 17 mph ()    
Max Wind Speed 25 mph    
Max Gust Speed -    
Visibility 6.8 miles    
Events Rain    
Averages and records for this station are not official NWS values.
T = Trace of Precipitation, MM = Missing Value Source: Averaged Metar Reports

Daily Weather History Graph

Daily Weather History Graph

Search for Another Location

Airport or City:

Trip Planner

Search our weather history database for the weather conditions in past years. The results will help you decide how hot, cold, wet, or windy it might be!

Date:

Astronomy

Jan. 14, 2014 Rise Set
Actual Time 8:53 AM CET 4:56 PM CET
Civil Twilight 8:12 AM CET 5:36 PM CET
Nautical Twilight 7:28 AM CET 6:20 PM CET
Astronomical Twilight 6:47 AM CET 7:02 PM CET
Moon 3:52 PM CET (1/14) 7:13 AM CET (1/14)
Length of Visible Light 9h 24m
Length of Day
8h 02m
Waxing Gibbous, 97% of the Moon is Illuminated
Jan 14
Waxing Gibbous
Jan 16
Full
Jan 24
Last Quarter
Jan 30
New
Feb 6
First Quarter

Hourly Weather History & Observations

Time (CET) Temp. Windchill Dew Point Humidity Pressure Visibility Wind Dir Wind Speed Gust Speed Precip Events Conditions
12:00 AM 48 °F - 42 °F 75% 29.65 in 9 mi South 22.4 mph - -   Partly Cloudy
12:25 AM 48.2 °F - 42.8 °F 82% 29.62 in 6.2 mi South 25.3 mph - N/A   Scattered Clouds
12:55 AM 48.2 °F - 42.8 °F 82% 29.62 in 6.2 mi South 24.2 mph - N/A   Scattered Clouds
1:00 AM 48 °F - 43 °F 76% 29.63 in 9 mi South 20.1 mph - -   Partly Cloudy
1:25 AM 48.2 °F - 42.8 °F 82% 29.62 in 6.2 mi South 25.3 mph - N/A   Scattered Clouds
1:55 AM 48.2 °F - 42.8 °F 82% 29.59 in 6.2 mi South 25.3 mph - N/A   Mostly Cloudy
2:00 AM 48 °F - 43 °F 75% 29.62 in 9 mi South 20.1 mph - -   Partly Cloudy
2:25 AM 48.2 °F - 42.8 °F 82% 29.59 in 6.2 mi South 24.2 mph - N/A   Mostly Cloudy
2:55 AM 48.2 °F - 42.8 °F 82% 29.59 in 6.2 mi South 23.0 mph - N/A   Mostly Cloudy
3:00 AM 48 °F - 42 °F 75% 29.61 in 9 mi South 20.1 mph - -   Scattered Clouds
3:25 AM 48.2 °F - 42.8 °F 82% 29.59 in 6.2 mi South 23.0 mph - N/A   Mostly Cloudy
3:55 AM 48.2 °F - 42.8 °F 82% 29.59 in 6.2 mi South 19.6 mph - N/A   Partly Cloudy
4:00 AM 48 °F - 42 °F 75% 29.61 in 9 mi South 17.9 mph - -   Scattered Clouds
4:25 AM 48.2 °F - 42.8 °F 82% 29.59 in 6.2 mi South 18.4 mph - N/A   Partly Cloudy
4:55 AM 48.2 °F - 42.8 °F 82% 29.59 in 6.2 mi South 17.3 mph - N/A   Mostly Cloudy
5:00 AM 47 °F - 43 °F 79% 29.60 in 10 mi South 15.7 mph - -   Scattered Clouds
5:25 AM 48.2 °F - 42.8 °F 82% 29.59 in 6.2 mi South 19.6 mph - N/A   Mostly Cloudy
5:55 AM 46.4 °F 39.0 °F 42.8 °F 87% 29.59 in 6.2 mi South 19.6 mph - N/A   Mostly Cloudy
6:00 AM 47 °F - 42 °F 79% 29.60 in 9 mi South 15.7 mph - -   Overcast
6:25 AM 46.4 °F 39.2 °F 42.8 °F 87% 29.59 in 6.2 mi South 18.4 mph - N/A   Mostly Cloudy
6:55 AM 46.4 °F 39.5 °F 42.8 °F 87% 29.56 in 6.2 mi South 17.3 mph - N/A   Mostly Cloudy
7:00 AM 47 °F - 43 °F 80% 29.59 in 9 mi South 15.7 mph - -   Partly Cloudy
7:25 AM 46.4 °F 39.2 °F 42.8 °F 87% 29.59 in 6.2 mi South 18.4 mph - N/A   Mostly Cloudy
7:55 AM 46.4 °F 39.0 °F 41.0 °F 81% 29.59 in 6.2 mi South 19.6 mph - N/A   Mostly Cloudy
8:00 AM 46 °F - 42 °F 80% 29.60 in 9 mi South 15.7 mph - -   Overcast
8:25 AM 46.4 °F 39.5 °F 41.0 °F 81% 29.59 in 6.2 mi South 17.3 mph - N/A   Mostly Cloudy
8:55 AM 46.4 °F 39.2 °F 42.8 °F 87% 29.59 in 6.2 mi South 18.4 mph - N/A   Mostly Cloudy
9:00 AM 46 °F - 42 °F 80% 29.61 in 8 mi SSE 13.4 mph - -   Overcast
9:25 AM 46.4 °F 39.8 °F 42.8 °F 87% 29.59 in 6.2 mi SSE 16.1 mph - N/A   Mostly Cloudy
9:55 AM 46.4 °F 39.8 °F 42.8 °F 87% 29.59 in 6.2 mi SSE 16.1 mph - N/A   Mostly Cloudy
10:00 AM 46 °F - 42 °F 82% 29.62 in 10 mi SSE 13.4 mph - -   Overcast
10:25 AM 44.6 °F 37.4 °F 41.0 °F 87% 29.59 in 6.2 mi SSE 16.1 mph - N/A   Mostly Cloudy
10:55 AM 44.6 °F 37.8 °F 41.0 °F 87% 29.59 in 6.2 mi SSE 15.0 mph - N/A   Overcast
11:00 AM 45 °F - 41 °F 82% 29.62 in 7 mi SSE 13.4 mph - -   Overcast
11:25 AM 44.6 °F 38.1 °F 41.0 °F 87% 29.59 in 6.2 mi SSE 13.8 mph - N/A   Overcast
11:55 AM 44.6 °F 37.4 °F 41.0 °F 87% 29.59 in 6.2 mi SSE 16.1 mph - N/A   Overcast
12:00 PM 45 °F - 41 °F 80% 29.62 in 9 mi SSE 13.4 mph - - Rain Drizzle
12:25 PM 46.4 °F 39.8 °F 41.0 °F 81% 29.59 in 6.2 mi South 16.1 mph - N/A   Overcast
12:55 PM 44.6 °F 37.8 °F 42.8 °F 93% 29.59 in 6.2 mi South 15.0 mph - N/A Rain Light Rain
1:00 PM 45 °F - 42 °F 83% 29.62 in 7 mi South 11.2 mph - - Rain Light Rain Showers
1:25 PM 44.6 °F 38.1 °F 41.0 °F 87% 29.62 in 6.2 mi South 13.8 mph - N/A Rain Light Rain
1:55 PM 44.6 °F 38.8 °F 42.8 °F 93% 29.62 in 6.2 mi SSE 11.5 mph - N/A Rain Light Rain
2:00 PM 45 °F - 42 °F 84% 29.63 in 7 mi SSE 11.2 mph - - Rain Heavy Rain
2:25 PM 44.6 °F 38.4 °F 41.0 °F 87% 29.62 in 6.2 mi South 12.7 mph - N/A   Light Drizzle
2:55 PM 44.6 °F 38.1 °F 41.0 °F 87% 29.62 in 6.2 mi SSE 13.8 mph - N/A Rain Light Rain
3:00 PM 45 °F - 41 °F 82% 29.63 in 10 mi SSE 11.2 mph - - Rain Heavy Rain
3:25 PM 44.6 °F 38.1 °F 41.0 °F 87% 29.62 in 6.2 mi SSE 13.8 mph - N/A Rain Light Rain
3:55 PM 44.6 °F 37.8 °F 39.2 °F 81% 29.62 in 6.2 mi South 15.0 mph - N/A   Light Drizzle
4:00 PM 45 °F - 39 °F 72% 29.65 in 28 mi South 11.2 mph - - Rain Rain
4:25 PM 44.6 °F 38.1 °F 39.2 °F 81% 29.62 in 6.2 mi South 13.8 mph - N/A Rain Light Drizzle
4:55 PM 44.6 °F 38.4 °F 39.2 °F 81% 29.65 in 6.2 mi South 12.7 mph - N/A   Mostly Cloudy
5:00 PM 45 °F - 40 °F 78% 29.65 in 28 mi South 11.2 mph - - Rain Rain
5:25 PM 44.6 °F 38.4 °F 39.2 °F 81% 29.65 in 6.2 mi South 12.7 mph - N/A   Mostly Cloudy
5:55 PM 44.6 °F 38.4 °F 39.2 °F 81% 29.65 in 6.2 mi SSE 12.7 mph - N/A   Light Drizzle
6:00 PM 45 °F - 40 °F 78% 29.66 in 25 mi South 11.2 mph - - Rain Light Drizzle
6:25 PM 44.6 °F 38.1 °F 41.0 °F 87% 29.65 in 6.2 mi South 13.8 mph - N/A   Light Drizzle
6:55 PM 44.6 °F 38.8 °F 41.0 °F 87% 29.65 in 6.2 mi SW 11.5 mph - N/A   Drizzle
7:00 PM 45 °F - 41 °F 81% 29.68 in 5 mi WSW 8.9 mph - - Rain Heavy Drizzle
7:25 PM 46.4 °F 40.1 °F 42.8 °F 87% 29.68 in 6.2 mi West 15.0 mph - N/A Rain Light Rain
7:55 PM 44.6 °F 40.2 °F 41.0 °F 87% 29.68 in 6.2 mi Variable 8.1 mph - N/A   Light Drizzle
8:00 PM 44 °F - 40 °F 83% 29.69 in 5 mi WNW 6.7 mph - - Rain Drizzle
8:25 PM 44.6 °F 40.2 °F 39.2 °F 81% 29.68 in 6.2 mi Variable 8.1 mph - N/A   Mostly Cloudy
8:55 PM 44.6 °F 36.6 °F 37.4 °F 76% 29.68 in 6.2 mi West 19.6 mph - N/A   Overcast
9:00 PM 44 °F - 37 °F 68% 29.70 in 28 mi West 15.7 mph - - Rain Drizzle
9:25 PM 44.6 °F 37.2 °F 39.2 °F 81% 29.68 in 6.2 mi West 17.3 mph - N/A   Overcast
9:55 PM 44.6 °F 37.2 °F 37.4 °F 76% 29.71 in 6.2 mi West 17.3 mph - N/A   Overcast
10:00 PM 44 °F - 37 °F 68% 29.71 in 28 mi West 15.7 mph - -   Partly Cloudy
10:25 PM 44.6 °F 37.4 °F 35.6 °F 71% 29.68 in 6.2 mi West 16.1 mph - N/A   Overcast
10:55 PM 44.6 °F 36.9 °F 35.6 °F 71% 29.71 in 6.2 mi West 18.4 mph - N/A   Overcast
11:00 PM 45 °F - 36 °F 60% 29.71 in 28 mi West 13.4 mph - -   Partly Cloudy
11:25 PM 44.6 °F 37.8 °F 35.6 °F 71% 29.68 in 6.2 mi West 15.0 mph - N/A   Overcast
11:55 PM 44.6 °F 37.8 °F 33.8 °F 66% 29.68 in 6.2 mi West 15.0 mph - N/A   Overcast